This is the latest recevied weather packets stored in our database for station/object KF7SOJ. If no packets are shown the sender has not sent any weather packets the latest 10 day(s).
| Time | Temp. | Humidity | Pressure | Rain* | Wind** | Luminosity | Snow |
|---|---|---|---|---|---|---|---|
| 1777560014 | 10° C | 42% | 938.4 hPa | 0 mm | - | 365 W/m² | - |
| 1777559708 | 10° C | 48% | 938.4 hPa | 0 mm | - | 347 W/m² | - |
| 1777559406 | 9.44° C | 46% | 938.3 hPa | 0 mm | - | 328 W/m² | - |
| 1777559103 | 8.89° C | 52% | 938.5 hPa | 0 mm | - | 309 W/m² | - |
| 1777558797 | 7.78° C | 53% | 938.4 hPa | 0 mm | - | 289 W/m² | - |
| 1777558493 | 7.78° C | 55% | 938.4 hPa | 0 mm | - | 270 W/m² | - |
| 1777558190 | 7.22° C | 52% | 938.5 hPa | 0 mm | - | 252 W/m² | - |
| 1777557886 | 6.67° C | 55% | 938.3 hPa | 0 mm | - | 234 W/m² | - |
| 1777557583 | 6.67° C | 55% | 938.3 hPa | 0 mm | - | 217 W/m² | - |
| 1777557279 | 6.11° C | 57% | 938.3 hPa | 0 mm | - | 201 W/m² | - |
| 1777556975 | 6.11° C | 56% | 938.4 hPa | 0 mm | - | 115 W/m² | - |
| 1777556671 | 6.11° C | 57% | 938.3 hPa | 0 mm | - | 172 W/m² | - |
| 1777556367 | 6.11° C | 57% | 938.4 hPa | 0 mm | - | 157 W/m² | - |
| 1777556062 | 5.56° C | 59% | 938.4 hPa | 0 mm | - | 138 W/m² | - |
| 1777555762 | 5.56° C | 59% | 938.4 hPa | 0 mm | - | 128 W/m² | - |
| 1777555459 | 5° C | 60% | 938.2 hPa | 0 mm | - | 118 W/m² | - |
| 1777555155 | 5.56° C | 58% | 938.1 hPa | 0 mm | - | 104 W/m² | - |
| 1777554853 | 5.56° C | 58% | 938.2 hPa | 0 mm | - | 93 W/m² | - |
| 1777554549 | 5° C | 58% | 938.2 hPa | 0 mm | - | 84 W/m² | - |
| 1777554246 | 5° C | 59% | 938.3 hPa | 0 mm | - | 75 W/m² | - |
| 1777553943 | 5° C | 60% | 938.3 hPa | 0 mm | - | 73 W/m² | - |
| 1777553639 | 4.44° C | 62% | 938.2 hPa | 0 mm | - | 69 W/m² | - |
| 1777553336 | 3.89° C | 62% | 938.1 hPa | 0 mm | - | 58 W/m² | - |
| 1777553032 | 3.33° C | 64% | 938 hPa | 0 mm | - | 52 W/m² | - |
| 1777552727 | 3.33° C | 63% | 938.1 hPa | 0 mm | - | 41 W/m² | - |
* Rain latest hour (hover to see other rain measurements)
** Current wind speed in m/s (hover to see current wind gust speed)